Charlotte, MI

7:34 PM EDT on July 24, 2017 (GMT -0400)
Charlotte

Weather History for KFPK - October, 2012

Change the Weather History Date:

Thursday, October 25, 2012

  Actual Average (KLAN) Record (KLAN)
Temperature  
Mean Temperature 68 °F -  
Max Temperature 77 °F 56 °F 81 °F (1963)
Min Temperature 58 °F 37 °F 12 °F (1887)
Cooling Degree Days 2    
Growing Degree Days 18 (Base 50)    
Moisture  
Dew Point 55 °F    
Average Humidity 64    
Maximum Humidity 84    
Minimum Humidity 46    
Precipitation  
Precipitation 0.00 in - - ()
Sea Level Pressure  
Sea Level Pressure 29.87 in    
Wind  
Wind Speed 11 mph (South)    
Max Wind Speed 28 mph    
Max Gust Speed 37 mph    
Visibility 10 miles    
Events      
Averages and records for this station are not official NWS values.
T = Trace of Precipitation, MM = Missing Value Source: NWS Daily Summary

Daily Weather History Graph

Daily Weather History Graph

Search for Another Location

Airport or City:

Trip Planner

Search our weather history database for the weather conditions in past years. The results will help you decide how hot, cold, wet, or windy it might be!

Date:

Astronomy

Oct. 25, 2012 Rise Set
Actual Time 8:04 AM EDT 6:41 PM EDT
Civil Twilight 7:35 AM EDT 7:09 PM EDT
Nautical Twilight 7:03 AM EDT 7:42 PM EDT
Astronomical Twilight 6:30 AM EDT 8:15 PM EDT
Moon 4:30 PM EDT (10/25) 3:55 AM EDT (10/25)
Length of Visible Light 11h 33m
Length of Day
10h 36m
Waxing Gibbous, 84% of the Moon is Illuminated
Oct 25
Waxing Gibbous
Oct 29
Full
Nov 6
Last Quarter
Nov 13
New
Nov 20
First Quarter

Hourly Weather History & Observations

Time (EDT) Temp. Dew Point Humidity Pressure Visibility Wind Dir Wind Speed Gust Speed Precip Events Conditions
12:15 AM 65.3 °F 58.6 °F 79% 29.95 in 10.0 mi South 6.9 mph - N/A   Clear
12:35 AM 65.3 °F 58.1 °F 77% 29.95 in 10.0 mi South 8.1 mph - N/A   Clear
12:55 AM 64.9 °F 57.4 °F 76% 29.94 in 10.0 mi South 8.1 mph - N/A   Clear
1:35 AM 63.3 °F 56.3 °F 78% 29.94 in 10.0 mi South 6.9 mph - N/A   Clear
1:55 AM 63.0 °F 56.1 °F 78% 29.94 in 10.0 mi South 6.9 mph - N/A   Clear
2:15 AM 62.1 °F 55.4 °F 79% 29.94 in 10.0 mi South 5.8 mph - N/A   Clear
2:35 AM 61.7 °F 55.2 °F 79% 29.94 in 10.0 mi South 6.9 mph - N/A   Clear
2:55 AM 61.9 °F 54.9 °F 78% 29.93 in 10.0 mi South 5.8 mph - N/A   Clear
3:35 AM 60.8 °F 53.8 °F 78% 29.93 in 10.0 mi South 4.6 mph - N/A   Clear
3:55 AM 60.1 °F 53.6 °F 79% 29.93 in 10.0 mi South 4.6 mph - N/A   Clear
4:15 AM 59.5 °F 53.2 °F 80% 29.93 in 10.0 mi South 4.6 mph - N/A   Clear
4:35 AM 58.5 °F 52.7 °F 81% 29.93 in 10.0 mi South 3.5 mph - N/A   Clear
4:55 AM 58.6 °F 52.9 °F 81% 29.93 in 10.0 mi South 4.6 mph - N/A   Clear
5:15 AM 58.3 °F 52.9 °F 82% 29.93 in 10.0 mi South 3.5 mph - N/A   Clear
5:35 AM 58.3 °F 53.1 °F 83% 29.93 in 10.0 mi South 4.6 mph - N/A   Clear
5:55 AM 58.5 °F 53.2 °F 83% 29.91 in 10.0 mi South 5.8 mph - N/A   Clear
6:15 AM 59.4 °F 54.0 °F 82% 29.92 in 10.0 mi South 5.8 mph - N/A   Clear
6:35 AM 59.4 °F 54.1 °F 83% 29.92 in 10.0 mi South 6.9 mph - N/A   Clear
6:55 AM 59.0 °F 54.0 °F 83% 29.92 in 10.0 mi South 6.9 mph - N/A   Clear
7:15 AM 59.0 °F 54.0 °F 83% 29.92 in 10.0 mi South 6.9 mph - N/A   Clear
7:55 AM 59.4 °F 54.5 °F 84% 29.93 in 10.0 mi South 8.1 mph - N/A   Clear
8:15 AM 59.9 °F 54.5 °F 82% 29.93 in 10.0 mi SSW 10.4 mph - N/A   Scattered Clouds
8:35 AM 60.1 °F 54.5 °F 82% 29.93 in 10.0 mi South 10.4 mph - N/A   Scattered Clouds
8:55 AM 61.2 °F 55.2 °F 81% 29.93 in 10.0 mi SSW 10.4 mph - N/A   Clear
9:35 AM 64.6 °F 56.1 °F 74% 29.92 in 10.0 mi South 17.3 mph - N/A   Clear
9:55 AM 66.0 °F 56.3 °F 71% 29.91 in 10.0 mi South 18.4 mph 24.2 mph N/A   Clear
10:15 AM 67.1 °F 56.5 °F 69% 29.91 in 10.0 mi SSW 15.0 mph - N/A   Clear
10:55 AM 69.4 °F 57.4 °F 65% 29.91 in 10.0 mi SSW 9.2 mph 20.7 mph N/A   Clear
11:15 AM 70.9 °F 58.3 °F 64% 29.91 in 10.0 mi SSW 12.7 mph 20.7 mph N/A   Clear
11:35 AM 72.3 °F 58.6 °F 62% 29.90 in 10.0 mi South 16.1 mph 20.7 mph N/A   Clear
11:55 AM 73.8 °F 58.5 °F 59% 29.90 in 10.0 mi South 17.3 mph 20.7 mph N/A   Clear
12:15 PM 74.3 °F 57.2 °F 55% 29.89 in 10.0 mi SSW 20.7 mph 26.5 mph N/A   Clear
12:35 PM 74.5 °F 57.0 °F 54% 29.89 in 10.0 mi SSW 20.7 mph 27.6 mph N/A   Clear
12:55 PM 75.2 °F 57.6 °F 54% 29.87 in 10.0 mi South 17.3 mph 25.3 mph N/A   Clear
1:15 PM 76.1 °F 57.0 °F 51% 29.86 in 10.0 mi SSW 20.7 mph 27.6 mph N/A   Clear
1:35 PM 76.5 °F 56.3 °F 50% 29.84 in 10.0 mi South 27.6 mph 35.7 mph N/A   Clear
1:55 PM 76.3 °F 55.9 °F 49% 29.84 in 10.0 mi SSW 21.9 mph 36.8 mph N/A   Clear
2:15 PM 76.3 °F 56.1 °F 50% 29.82 in 10.0 mi SSW 19.6 mph 29.9 mph N/A   Clear
2:35 PM 76.6 °F 56.1 °F 49% 29.82 in 10.0 mi South 24.2 mph 29.9 mph N/A   Clear
2:55 PM 76.5 °F 56.1 °F 49% 29.81 in 10.0 mi South 21.9 mph 32.2 mph N/A   Clear
3:15 PM 77.0 °F 56.1 °F 48% 29.80 in 10.0 mi South 21.9 mph 31.1 mph N/A   Clear
3:35 PM 77.0 °F 55.9 °F 48% 29.79 in 10.0 mi South 19.6 mph 32.2 mph N/A   Clear
4:15 PM 77.0 °F 54.9 °F 46% 29.79 in 10.0 mi South 21.9 mph 29.9 mph N/A   Clear
4:35 PM 77.0 °F 55.0 °F 47% 29.79 in 10.0 mi South 20.7 mph 28.8 mph N/A   Clear
4:55 PM 76.5 °F 54.7 °F 47% 29.79 in 10.0 mi South 23.0 mph 28.8 mph N/A   Clear
5:15 PM 75.4 °F 53.8 °F 47% 29.79 in 10.0 mi South 23.0 mph 32.2 mph N/A   Clear
5:35 PM 75.4 °F 54.1 °F 48% 29.79 in 10.0 mi South 18.4 mph 27.6 mph N/A   Clear
5:55 PM 74.7 °F 54.1 °F 49% 29.79 in 10.0 mi South 20.7 mph 28.8 mph N/A   Clear
6:15 PM 73.8 °F 54.0 °F 50% 29.79 in 10.0 mi South 18.4 mph 21.9 mph N/A   Clear
6:35 PM 72.5 °F 53.8 °F 52% 29.79 in 10.0 mi South 17.3 mph - N/A   Clear
6:55 PM 71.8 °F 53.8 °F 53% 29.80 in 10.0 mi South 15.0 mph - N/A   Clear
7:15 PM 71.1 °F 54.0 °F 55% 29.80 in 10.0 mi South 10.4 mph 20.7 mph N/A   Clear
7:35 PM 70.2 °F 53.8 °F 56% 29.81 in 10.0 mi South 13.8 mph 18.4 mph N/A   Scattered Clouds
7:55 PM 70.7 °F 54.0 °F 55% 29.81 in 10.0 mi South 10.4 mph - N/A   Mostly Cloudy
8:15 PM 71.2 °F 53.6 °F 54% 29.82 in 10.0 mi South 15.0 mph 20.7 mph N/A   Overcast
8:35 PM 70.7 °F 53.8 °F 55% 29.81 in 10.0 mi South 15.0 mph 21.9 mph N/A   Mostly Cloudy
8:55 PM 70.3 °F 54.0 °F 56% 29.80 in 10.0 mi South 13.8 mph - N/A   Scattered Clouds
9:15 PM 70.0 °F 54.1 °F 57% 29.79 in 10.0 mi South 18.4 mph 23.0 mph N/A   Clear
9:35 PM 70.2 °F 54.3 °F 57% 29.80 in 10.0 mi South 18.4 mph 24.2 mph N/A   Clear
9:55 PM 69.8 °F 54.1 °F 57% 29.79 in 10.0 mi South 17.3 mph 24.2 mph N/A   Clear
10:15 PM 69.4 °F 54.5 °F 59% 29.80 in 10.0 mi South 15.0 mph 20.7 mph N/A   Scattered Clouds
10:35 PM 70.0 °F 54.5 °F 58% 29.80 in 10.0 mi South 17.3 mph 23.0 mph N/A   Mostly Cloudy
10:55 PM 70.7 °F 54.5 °F 56% 29.79 in 10.0 mi South 16.1 mph 20.7 mph N/A   Overcast
11:35 PM 71.1 °F 54.5 °F 56% 29.79 in 10.0 mi SSW 15.0 mph 19.6 mph N/A   Overcast
11:55 PM 71.6 °F 54.5 °F 55% 29.79 in 10.0 mi SSW 13.8 mph 21.9 mph N/A   Overcast